DW9945 Weather Reports


time (UTC)temp
C
wind
direction
speed
KPH
gust
KPH
rain 1hr
cm
rain 24hr
cm
rain mn
cm
humidity
%
barometer
mb
20260904194507 31 325 1.6 3.2 0.00 0.00 0.00 19 1017.6
20260904194006 31 333 3.2 4.8 0.00 0.00 0.00 19 1017.6
20260904193506 31 322 1.6 4.8 0.00 0.00 0.00 18 1017.5
20260904193007 31 295 3.2 4.8 0.00 0.00 0.00 18 1017.5
20260904192506 31 291 3.2 4.8 0.00 0.00 0.00 18 1017.6
20260904192007 30 291 1.6 4.8 0.00 0.00 0.00 18 1017.5
20260904191507 30 312 1.6 3.2 0.00 0.00 0.00 18 1017.4
20260904191006 31 312 1.6 4.8 0.00 0.00 0.00 18 1017.3
20260904190507 31 292 1.6 4.8 0.00 0.00 0.00 18 1017.1
20260904190008 31 295 3.2 4.8 0.00 0.00 0.00 18 1017.1
20260904185510 31 306 3.2 4.8 0.00 0.00 0.00 18 1017.1
20260904185007 32 301 3.2 4.8 0.00 0.00 0.00 17 1017.1
20260904184506 33 298 3.2 4.8 0.00 0.00 0.00 17 1017.1
20260904183506 33 255 0.0 0.0 0.00 0.00 0.00 17 1017.2
20260904183006 34 255 0.0 0.0 0.00 0.00 0.00 17 1017.1
20260904182507 35 255 1.6 3.2 0.00 0.00 0.00 17 1017.2
20260904182006 35 233 1.6 3.2 0.00 0.00 0.00 17 1017.3
20260904181006 35 191 3.2 4.8 0.00 0.00 0.00 16 1017.2
20260904180510 35 193 3.2 4.8 0.00 0.00 0.00 16 1017.1
20260904180006 35 195 4.8 8.0 0.00 0.00 0.00 16 1017.1
20260904175506 35 208 3.2 4.8 0.00 0.00 0.00 16 1017.1
20260904175006 36 202 1.6 3.2 0.00 0.00 0.00 16 1017.1
20260904174506 36 232 1.6 4.8 0.00 0.00 0.00 16 1017.1
20260904174007 36 233 1.6 4.8 0.00 0.00 0.00 16 1017.2
20260904173506 36 221 3.2 4.8 0.00 0.00 0.00 16 1017.2
20260904173011 36 200 1.6 4.8 0.00 0.00 0.00 16 1017.3
20260904172506 36 225 3.2 4.8 0.00 0.00 0.00 16 1017.2
20260904172006 36 220 3.2 4.8 0.00 0.00 0.00 16 1017.3
20260904171506 36 234 3.2 8.0 0.00 0.00 0.00 15 1017.2
20260904170506 36 209 0.0 4.8 0.00 0.00 0.00 15 1017.1
20260904170006 36 198 3.2 8.0 0.00 0.00 0.00 15 1017.1
20260904164506 36 200 4.8 11.3 0.00 0.00 0.00 15 1017.1
20260904164006 36 180 4.8 8.0 0.00 0.00 0.00 15 1017.1
20260904163505 36 216 4.8 9.7 0.00 0.00 0.00 15 1017.1
20260904163006 36 221 6.4 11.3 0.00 0.00 0.00 15 1017.1
20260904162505 36 228 8.0 11.3 0.00 0.00 0.00 15 1017.1
20260904162005 36 191 8.0 11.3 0.00 0.00 0.00 15 1017.2
20260904161506 36 193 8.0 14.5 0.00 0.00 0.00 15 1017.3
20260904161006 36 183 4.8 11.3 0.00 0.00 0.00 15 1017.2
20260904160506 37 192 4.8 11.3 0.00 0.00 0.00 15 1017.2
20260904160006 37 217 8.0 14.5 0.00 0.00 0.00 15 1017.3
20260904155505 37 220 3.2 11.3 0.00 0.00 0.00 14 1017.3
20260904155005 37 218 4.8 12.9 0.00 0.00 0.00 15 1017.4
20260904154506 37 172 8.0 12.9 0.00 0.00 0.00 15 1017.3
20260904154006 36 190 4.8 12.9 0.00 0.00 0.00 15 1017.3
20260904153006 36 193 6.4 11.3 0.00 0.00 0.00 15 1017.4
20260904152506 36 188 4.8 19.3 0.00 0.00 0.00 15 1017.4
20260904151506 37 232 8.0 12.9 0.00 0.00 0.00 14 1017.5
20260904151006 37 215 3.2 11.3 0.00 0.00 0.00 15 1017.5
20260904150506 37 224 8.0 16.1 0.00 0.00 0.00 14 1017.7
20260904150006 37 207 8.0 11.3 0.00 0.00 0.00 14 1017.6
20260904145506 36 200 6.4 16.1 0.00 0.00 0.00 14 1017.6
20260904145005 36 205 11.3 16.1 0.00 0.00 0.00 14 1017.7
20260904144505 36 217 9.7 20.9 0.00 0.00 0.00 14 1017.8
20260904144006 36 218 9.7 19.3 0.00 0.00 0.00 14 1017.7
20260904143506 36 209 8.0 19.3 0.00 0.00 0.00 14 1017.7
20260904143006 36 229 9.7 19.3 0.00 0.00 0.00 14 1017.7
20260904142505 37 212 4.8 19.3 0.00 0.00 0.00 13 1018.0
20260904142005 37 220 6.4 11.3 0.00 0.00 0.00 13 1018.1
20260904141506 37 185 4.8 14.5 0.00 0.00 0.00 14 1018.1